CW0962 Weather Reports


Display with metric or nautical units.
time (UTC)temp
F
wind
direction
speed
MPH
gust
MPH
rain 1hr
in
rain 24hr
in
rain mn
in
humidity
%
barometer
mb
20260507012505 57 175 6.0 16.0 0.02 0.31 0.31 89 1005.6
20260507011505 58 158 6.0 23.0 0.05 0.31 0.31 90 1005.5
20260507011002 58 115 7.0 23.0 0.05 0.31 0.31 90 1005.6
20260507010008 58 160 6.0 20.0 0.06 0.31 0.31 90 1005.5
20260507005510 58 227 6.0 20.0 0.07 0.31 0.31 90 1005.6
20260507005007 58 204 7.0 20.0 0.07 0.30 0.30 90 1005.4
20260507004510 58 177 8.0 25.0 0.08 0.30 0.30 89 1005.6
20260507004002 58 155 8.0 25.0 0.10 0.30 0.30 90 1005.6
20260507003500 58 161 7.0 25.0 0.11 0.30 0.30 90 1005.6
20260507003023 58 177 6.0 16.0 0.12 0.30 0.30 90 1005.6
20260507002505 58 178 6.0 15.0 0.12 0.29 0.29 90 1005.6
20260507002005 57 196 6.0 16.0 0.13 0.27 0.27 89 1005.7
20260507001004 57 200 7.0 22.0 0.14 0.25 0.25 89 1005.6
20260507000501 57 226 6.0 18.0 0.15 0.25 0.25 89 1005.6
20260506235504 57 188 6.0 13.0 0.17 0.24 0.24 89 1005.5
20260506234504 57 195 7.0 15.0 0.17 0.21 0.21 89 1005.7
20260506234004 57 161 6.0 15.0 0.15 0.19 0.19 89 1005.7
20260506233510 57 223 6.0 14.0 0.15 0.19 0.19 89 1005.5
20260506233004 57 182 7.0 26.0 0.15 0.18 0.18 89 1005.5
20260506232551 57 205 8.0 26.0 0.15 0.17 0.17 89 1005.5
20260506232003 57 178 9.0 20.0 0.12 0.14 0.14 88 1005.4
20260506231503 57 177 8.0 22.0 0.10 0.12 0.12 88 1005.6
20260506230504 57 190 7.0 20.0 0.08 0.10 0.10 88 1005.6
20260506230005 57 201 7.0 19.0 0.06 0.08 0.08 88 1005.7
20260506225522 57 96 7.0 19.0 0.05 0.07 0.07 87 1005.6
20260506225000 57 166 7.0 14.0 0.04 0.05 0.05 87 1005.6
20260506224504 58 178 7.0 14.0 0.03 0.04 0.04 87 1005.6
20260506224010 58 163 8.0 19.0 0.03 0.04 0.04 86 1005.7
20260506223507 58 195 8.0 19.0 0.03 0.04 0.04 86 1005.7
20260506223022 58 258 8.0 23.0 0.02 0.03 0.03 85 1005.9
20260506222501 58 143 8.0 24.0 0.01 0.02 0.02 85 1006.0
20260506222012 59 228 8.0 24.0 0.02 0.02 0.02 85 1006.0
20260506221512 59 148 7.0 25.0 0.02 0.02 0.02 85 1005.9
20260506221001 59 243 8.0 25.0 0.02 0.02 0.02 85 1006.0
20260506220510 59 152 8.0 24.0 0.02 0.02 0.02 84 1006.0
20260506220009 59 174 8.0 20.0 0.02 0.02 0.02 84 1006.0
20260506215500 59 212 7.0 20.0 0.02 0.02 0.02 84 1006.0
20260506214503 59 155 8.0 24.0 0.01 0.01 0.01 83 1005.9
20260506213514 59 157 7.0 18.0 0.01 0.01 0.01 83 1006.1
20260506213025 60 194 7.0 18.0 0.01 0.01 0.01 82 1006.2
20260506212510 60 122 8.0 19.0 0.01 0.01 0.01 81 1006.3
20260506211002 62 146 7.0 18.0 0.00 0.00 0.00 77 1006.3
20260506210506 62 218 7.0 20.0 0.00 0.00 0.00 76 1006.4
20260506205459 62 167 8.0 24.0 0.00 0.00 0.00 76 1006.4
20260506205009 62 167 8.0 24.0 0.00 0.00 0.00 76 1006.3
20260506204516 62 154 7.0 20.0 0.00 0.00 0.00 75 1006.5
20260506204001 62 246 8.0 20.0 0.00 0.00 0.00 75 1006.4
20260506203513 62 106 7.0 19.0 0.00 0.00 0.00 75 1006.4
20260506202514 62 144 8.0 25.0 0.00 0.00 0.00 76 1006.6
20260506202026 62 177 7.0 16.0 0.00 0.00 0.00 77 1006.6
20260506201004 62 128 7.0 19.0 0.00 0.00 0.00 77 1006.8
20260506200504 62 141 7.0 19.0 0.00 0.00 0.00 74 1006.9
20260506195504 62 188 8.0 19.0 0.00 0.00 0.00 72 1007.0
20260506195000 63 281 8.0 19.0 0.00 0.00 0.00 72 1007.1
20260506194501 63 197 8.0 19.0 0.00 0.00 0.00 72 1007.0
20260506194000 63 220 8.0 19.0 0.00 0.00 0.00 72 1007.1
20260506193002 63 173 8.0 18.0 0.00 0.00 0.00 71 1007.1
20260506191005 63 150 8.0 24.0 0.00 0.00 0.00 71 1007.1
20260506190536 63 173 8.0 24.0 0.00 0.00 0.00 71 1007.1
20260506190007 64 157 9.0 22.0 0.00 0.00 0.00 70 1007.1
20260506185517 64 178 9.0 23.0 0.00 0.00 0.00 70 1007.2
20260506185027 64 203 9.0 23.0 0.00 0.00 0.00 69 1007.2
20260506184501 64 207 9.0 20.0 0.00 0.00 0.00 70 1007.3
20260506184003 65 236 9.0 28.0 0.00 0.00 0.00 69 1007.3
20260506183459 65 143 7.0 28.0 0.00 0.00 0.00 68 1007.4
20260506183011 65 144 8.0 25.0 0.00 0.00 0.00 68 1007.4
20260506182507 66 245 7.0 25.0 0.00 0.00 0.00 68 1007.5
20260506182005 66 191 6.0 14.0 0.00 0.00 0.00 67 1007.7
20260506181002 66 195 7.0 21.0 0.00 0.00 0.00 67 1007.7
20260506180506 67 175 8.0 21.0 0.00 0.00 0.00 65 1008.0
20260506180007 67 125 8.0 23.0 0.00 0.00 0.00 65 1008.0
20260506175500 67 197 10.0 27.0 0.00 0.00 0.00 64 1008.2
20260506175001 68 172 11.0 27.0 0.00 0.00 0.00 64 1008.1
20260506174459 68 207 8.0 27.0 0.00 0.00 0.00 64 1008.2
20260506174000 69 181 7.0 23.0 0.00 0.00 0.00 64 1008.2
20260506172959 68 47 10.0 22.0 0.00 0.00 0.00 64 1008.1
20260506172500 67 142 11.0 25.0 0.00 0.00 0.00 65 1008.1
20260506172000 67 135 10.0 25.0 0.00 0.00 0.00 67 1008.2
20260506171500 67 201 9.0 22.0 0.00 0.00 0.00 65 1008.2
20260506171000 66 140 10.0 22.0 0.00 0.00 0.00 67 1008.3
20260506170500 67 159 8.0 21.0 0.00 0.00 0.00 66 1008.4
20260506165459 67 132 8.0 21.0 0.00 0.00 0.00 65 1008.7
20260506165000 68 173 9.0 23.0 0.00 0.00 0.00 66 1008.8
20260506164500 67 200 11.0 23.0 0.00 0.00 0.00 66 1008.6
20260506163500 68 251 8.0 23.0 0.00 0.00 0.00 64 1008.7
20260506163001 68 170 9.0 24.0 0.00 0.00 0.00 64 1008.9
20260506162001 68 183 9.0 25.0 0.00 0.00 0.00 63 1009.0
20260506161500 69 186 9.0 25.0 0.00 0.00 0.00 63 1009.2
20260506161000 69 205 9.0 25.0 0.00 0.00 0.00 61 1009.0
20260506160459 70 227 9.0 25.0 0.00 0.00 0.00 62 1009.0
20260506160001 69 234 8.0 24.0 0.00 0.00 0.00 63 1009.0
20260506155459 70 171 9.0 26.0 0.00 0.00 0.00 63 1009.2
20260506154459 68 109 9.0 28.0 0.00 0.00 0.00 63 1009.4
20260506154010 68 148 9.0 28.0 0.00 0.00 0.00 63 1009.4
20260506153507 69 201 9.0 24.0 0.00 0.00 0.00 63 1009.4
20260506153000 67 192 10.0 28.0 0.00 0.00 0.00 65 1009.7
20260506152500 68 173 10.0 28.0 0.00 0.00 0.00 66 1009.7
20260506152001 67 203 9.0 23.0 0.00 0.00 0.00 66 1009.6
20260506150959 67 174 7.0 20.0 0.00 0.00 0.00 65 1009.5
20260506150459 67 170 7.0 16.0 0.00 0.00 0.00 66 1009.3
20260506145457 67 167 9.0 20.0 0.00 0.00 0.00 66 1009.4
20260506144959 68 220 9.0 27.0 0.00 0.00 0.00 65 1009.4
20260506144458 68 194 8.0 27.0 0.00 0.00 0.00 63 1009.5
20260506143959 68 146 8.0 25.0 0.00 0.00 0.00 64 1009.5
20260506143500 68 130 9.0 25.0 0.00 0.00 0.00 63 1009.4
20260506142959 67 89 11.0 26.0 0.00 0.00 0.00 64 1009.3
20260506142458 68 201 9.0 26.0 0.00 0.00 0.00 62 1009.3
20260506140959 69 42 9.0 20.0 0.00 0.00 0.00 63 1009.4
20260506140004 68 251 8.0 18.0 0.00 0.00 0.00 64 1009.7
20260506135500 68 195 8.0 27.0 0.00 0.00 0.00 65 1009.8
20260506135000 67 168 8.0 27.0 0.00 0.00 0.00 64 1010.0
20260506132002 66 188 7.0 20.0 0.00 0.00 0.00 69 1009.8
20260506131032 65 202 7.0 20.0 0.00 0.00 0.00 70 1009.8
20260506130501 65 181 9.0 22.0 0.00 0.00 0.00 70 1009.6
20260506130008 65 242 9.0 23.0 0.00 0.00 0.00 70 1009.6
20260506125501 65 125 9.0 23.0 0.00 0.00 0.00 71 1009.5
20260506125005 64 188 9.0 22.0 0.00 0.00 0.00 72 1009.6
20260506124512 63 168 8.0 20.0 0.00 0.00 0.00 74 1009.7
20260506124008 62 229 8.0 24.0 0.00 0.00 0.00 75 1009.8
20260506123544 62 150 9.0 24.0 0.00 0.00 0.00 75 1010.0
20260506123004 62 200 10.0 29.0 0.00 0.00 0.00 75 1009.9
20260506122500 62 189 8.0 29.0 0.00 0.00 0.00 75 1009.9
20260506121501 63 194 9.0 24.0 0.00 0.00 0.00 74 1010.1
20260506120503 62 157 8.0 27.0 0.00 0.00 0.00 78 1010.2
20260506114505 60 146 8.0 20.0 0.00 0.00 0.00 79 1010.5
20260506114040 60 160 7.0 16.0 0.00 0.00 0.00 80 1010.6
20260506113531 60 175 8.0 22.0 0.00 0.00 0.00 80 1010.6
20260506112510 59 158 7.0 22.0 0.00 0.00 0.00 80 1010.5
20260506112002 59 136 6.0 23.0 0.00 0.00 0.00 80 1010.4
20260506111510 59 209 6.0 23.0 0.00 0.00 0.00 80 1010.4
20260506111012 59 160 7.0 22.0 0.00 0.00 0.00 80 1010.4
20260506110529 59 167 6.0 14.0 0.00 0.00 0.00 80 1010.5
20260506110004 59 169 6.0 15.0 0.00 0.00 0.00 81 1010.4
20260506105510 59 211 8.0 19.0 0.00 0.00 0.00 81 1010.4
20260506105004 59 208 8.0 19.0 0.00 0.00 0.00 81 1010.4
20260506104508 59 170 7.0 21.0 0.00 0.00 0.00 81 1010.4
20260506103509 59 176 7.0 15.0 0.00 0.00 0.00 82 1010.4
20260506103023 59 184 7.0 22.0 0.00 0.00 0.00 81 1010.3
20260506102502 59 222 7.0 22.0 0.00 0.00 0.00 81 1010.4
20260506102005 59 152 7.0 16.0 0.00 0.00 0.00 82 1010.2
20260506101515 59 199 8.0 20.0 0.00 0.00 0.00 82 1010.2
20260506100503 58 132 6.0 14.0 0.00 0.00 0.00 82 1010.0
20260506100008 58 156 6.0 15.0 0.00 0.00 0.00 82 1010.1
20260506095502 58 155 6.0 21.0 0.00 0.00 0.00 83 1010.1
20260506094511 58 169 6.0 21.0 0.00 0.00 0.00 83 1010.2
20260506094001 58 121 6.0 13.0 0.00 0.00 0.00 83 1010.2
20260506093514 58 152 6.0 21.0 0.00 0.00 0.00 82 1010.1
20260506093006 58 199 7.0 21.0 0.00 0.00 0.00 82 1010.2
20260506092502 59 201 7.0 15.0 0.00 0.00 0.00 82 1010.3
20260506091504 59 129 8.0 20.0 0.00 0.00 0.00 82 1010.2
20260506090502 59 183 8.0 20.0 0.00 0.00 0.00 82 1010.3
20260506090025 59 128 7.0 15.0 0.00 0.00 0.00 82 1010.3
20260506084505 59 153 7.0 16.0 0.00 0.00 0.00 82 1010.2
20260506084004 59 155 8.0 19.0 0.00 0.00 0.00 82 1010.3
20260506083006 59 178 8.0 16.0 0.00 0.00 0.00 82 1010.3
20260506082001 59 198 8.0 21.0 0.00 0.00 0.00 82 1010.4
20260506081503 59 209 9.0 24.0 0.00 0.00 0.00 82 1010.4
20260506081001 58 171 8.0 24.0 0.00 0.00 0.00 82 1010.3
20260506080509 59 159 8.0 24.0 0.00 0.00 0.00 81 1010.3
20260506073458 59 187 8.0 24.0 0.00 0.00 0.00 80 1010.3
20260506073012 59 168 10.0 29.0 0.00 0.00 0.00 79 1010.3
20260506072002 59 194 8.0 29.0 0.00 0.00 0.00 79 1010.3
20260506070517 59 164 8.0 25.0 0.00 0.00 0.00 79 1010.3
20260506062504 59 223 8.0 22.0 0.00 0.00 0.00 78 1010.0
20260506062006 59 147 9.0 23.0 0.00 0.00 0.00 78 1010.1
20260506061511 59 182 9.0 23.0 0.00 0.00 0.00 78 1010.2
20260506061002 60 107 8.0 26.0 0.00 0.00 0.00 78 1010.2
20260506060459 60 176 8.0 26.0 0.00 0.00 0.00 77 1010.2
20260506051001 60 249 8.0 22.0 0.00 0.00 0.00 76 1010.6
20260506045000 59 227 8.0 18.0 0.00 0.00 0.00 76 1010.9
20260506044501 59 204 7.0 18.0 0.00 0.00 0.00 76 1010.8
20260506044024 59 190 8.0 16.0 0.00 0.00 0.00 76 1010.7
20260506043509 59 167 8.0 18.0 0.00 0.00 0.00 76 1010.8
20260506043025 59 153 8.0 22.0 0.00 0.00 0.00 76 1010.8
20260506042001 59 279 9.0 19.0 0.00 0.00 0.00 76 1010.7
20260506041459 59 296 8.0 21.0 0.00 0.00 0.00 76 1010.8
20260506041002 59 215 7.0 21.0 0.00 0.00 0.00 76 1010.7
20260506040006 59 192 9.0 27.0 0.00 0.00 0.00 76 1010.7
20260506035528 59 169 8.0 20.0 0.00 0.00 0.00 76 1010.7
20260506035011 59 154 8.0 21.0 0.00 0.00 0.00 76 1010.8
20260506033505 58 221 9.0 20.0 0.00 0.00 0.00 75 1010.7
20260506033005 59 202 9.0 20.0 0.00 0.00 0.00 74 1010.6
20260506032506 59 150 8.0 26.0 0.00 0.00 0.00 74 1010.7
20260506032028 59 150 8.0 26.0 0.00 0.00 0.00 74 1010.6
20260506031004 59 179 8.0 23.0 0.00 0.00 0.00 73 1010.4
20260506030518 59 236 8.0 23.0 0.00 0.00 0.00 73 1010.4
20260506030024 59 112 8.0 20.0 0.00 0.00 0.00 72 1010.4
20260506025512 59 188 8.0 23.0 0.00 0.00 0.00 71 1010.5
20260506024011 58 189 8.0 21.0 0.00 0.00 0.00 71 1010.3
20260506023503 58 169 10.0 21.0 0.00 0.00 0.00 70 1010.3
20260506023003 58 177 9.0 22.0 0.00 0.00 0.00 70 1010.1
20260506022523 58 119 8.0 22.0 0.00 0.00 0.00 70 1010.1
20260506022010 58 211 8.0 21.0 0.00 0.00 0.00 69 1010.1
20260506021503 58 161 8.0 21.0 0.00 0.00 0.00 69 1010.3
20260506021004 58 94 7.0 20.0 0.00 0.00 0.00 68 1010.3
20260506020530 58 175 8.0 21.0 0.00 0.00 0.00 68 1010.3
20260506014503 59 151 8.0 20.0 0.00 0.00 0.00 67 1010.4
20260506014001 59 183 9.0 20.0 0.00 0.00 0.00 67 1010.5
20260506013509 59 160 9.0 26.0 0.00 0.00 0.00 67 1010.3
20260506013005 59 183 9.0 26.0 0.00 0.00 0.00 67 1010.3